• In Hungary
  • List of Countries
  • For 7 days
  • Water Temperature
  • Satellite Maps
  • Weather Map
  • News
  • Weather Widgets
  • user-avatar
    Login

    Hourly Weather Ariano Irpino

    Today, 24 January, Wednesday

    Time Temperature Precipitation Wind Pressure Humidity
    00:00 +4°C° 0 mm 2 mps 723 mmHg 85%
    01:00 +3°C° 0 mm 2 mps 724 mmHg 84%
    02:00 +3°C° 0 mm 2 mps 724 mmHg 83%
    03:00 +3°C° 0 mm 2 mps 724 mmHg 82%
    04:00 +3°C° 0 mm 2 mps 724 mmHg 81%
    05:00 +2°C° 0 mm 2 mps 724 mmHg 81%
    06:00 +2°C° 0 mm 2 mps 724 mmHg 81%
    07:00 +2°C° 0 mm 2 mps 724 mmHg 81%
    08:00 +4°C° 0 mm 2 mps 725 mmHg 75%
    09:00 +5°C° 0 mm 2 mps 725 mmHg 69%
    10:00 +7°C° 0 mm 3 mps 726 mmHg 63%
    11:00 +8°C° 0 mm 3 mps 726 mmHg 59%
    12:00 +9°C° 0 mm 3 mps 726 mmHg 56%
    13:00 +10°C° 0 mm 3 mps 726 mmHg 52%
    14:00 +10°C° 0 mm 2 mps 726 mmHg 54%
    15:00 +9°C° 0 mm 2 mps 726 mmHg 57%
    16:00 +9°C° 0 mm 2 mps 726 mmHg 59%
    17:00 +9°C° 0 mm 1 mps 726 mmHg 65%
    18:00 +7°C° 0 mm 1 mps 726 mmHg 70%
    19:00 +6°C° 0 mm 1 mps 726 mmHg 76%
    20:00 +5°C° 0 mm 1 mps 726 mmHg 77%
    21:00 +5°C° 0 mm 1 mps 726 mmHg 77%
    22:00 +5°C° 0 mm 1 mps 726 mmHg 78%
    23:00 +5°C° 0 mm 1 mps 726 mmHg 76%

    Tomorrow, 25 January, Thursday

    Time Temperature Precipitation Wind Pressure Humidity
    00:00 +5°C° 0 mm 1 mps 726 mmHg 74%
    01:00 +5°C° 0 mm 1 mps 725 mmHg 72%
    02:00 +4°C° 0 mm 1 mps 725 mmHg 71%
    03:00 +4°C° 0 mm 1 mps 725 mmHg 70%
    04:00 +4°C° 0 mm 1 mps 725 mmHg 68%
    05:00 +4°C° 0 mm 1 mps 724 mmHg 68%
    06:00 +4°C° 0 mm 1 mps 724 mmHg 68%
    07:00 +4°C° 0 mm 1 mps 724 mmHg 68%
    08:00 +6°C° 0 mm 1 mps 725 mmHg 65%
    09:00 +8°C° 0 mm 1 mps 725 mmHg 61%
    10:00 +9°C° 0 mm 1 mps 725 mmHg 57%
    11:00 +10°C° 0 mm 1 mps 725 mmHg 55%
    12:00 +10°C° 0 mm 2 mps 724 mmHg 52%
    13:00 +13°C° 0 mm 2 mps 724 mmHg 50%
    14:00 +12°C° 0 mm 2 mps 724 mmHg 53%
    15:00 +12°C° 0 mm 2 mps 723 mmHg 57%
    16:00 +12°C° 0 mm 2 mps 723 mmHg 60%
    17:00 +9°C° 0 mm 2 mps 723 mmHg 66%
    18:00 +7°C° 0 mm 2 mps 723 mmHg 72%
    19:00 +6°C° 0 mm 2 mps 722 mmHg 78%
    20:00 +5°C° 0 mm 2 mps 722 mmHg 80%
    21:00 +5°C° 0 mm 2 mps 722 mmHg 82%
    22:00 +4°C° 0 mm 2 mps 722 mmHg 84%
    23:00 +4°C° 0 mm 2 mps 722 mmHg 85%

    Day after tomorrow, 26 January, Friday

    Time Temperature Precipitation Wind Pressure Humidity
    00:00 +4°C° 0 mm 2 mps 721 mmHg 86%
    01:00 +4°C° 0 mm 2 mps 721 mmHg 86%
    02:00 +4°C° 0 mm 2 mps 721 mmHg 87%
    03:00 +3°C° 0 mm 2 mps 720 mmHg 87%
    04:00 +3°C° 0 mm 2 mps 720 mmHg 87%
    05:00 +3°C° 0 mm 2 mps 720 mmHg 87%
    06:00 +3°C° 0 mm 2 mps 720 mmHg 87%
    07:00 +3°C° 0 mm 2 mps 720 mmHg 87%
    08:00 +5°C° 0 mm 2 mps 720 mmHg 83%
    09:00 +7°C° 0 mm 2 mps 720 mmHg 78%
    10:00 +9°C° 0 mm 2 mps 720 mmHg 74%
    11:00 +10°C° 0 mm 3 mps 720 mmHg 72%
    12:00 +11°C° 0 mm 3 mps 720 mmHg 69%
    13:00 +12°C° 0 mm 3 mps 719 mmHg 67%
    14:00 +11°C° 0 mm 3 mps 719 mmHg 69%
    15:00 +11°C° 0 mm 3 mps 719 mmHg 71%
    16:00 +12°C° 0 mm 2 mps 719 mmHg 73%
    17:00 +9°C° 0 mm 2 mps 719 mmHg 78%
    18:00 +8°C° 0 mm 2 mps 719 mmHg 83%
    19:00 +7°C° 0 mm 2 mps 719 mmHg 88%
    20:00 +6°C° 0 mm 2 mps 719 mmHg 89%
    21:00 +6°C° 0 mm 2 mps 719 mmHg 90%
    22:00 +6°C° 0 mm 2 mps 719 mmHg 91%
    23:00 +6°C° 0 mm 2 mps 719 mmHg 90%

    27 January, Saturday

    Time Temperature Precipitation Wind Pressure Humidity
    00:00 +5°C° 0 mm 2 mps 719 mmHg 90%
    01:00 +5°C° 0 mm 2 mps 718 mmHg 89%
    02:00 +5°C° 0 mm 2 mps 718 mmHg 87%
    03:00 +5°C° 0 mm 2 mps 718 mmHg 85%
    04:00 +5°C° 0 mm 2 mps 718 mmHg 83%
    05:00 +5°C° 0 mm 2 mps 718 mmHg 80%
    06:00 +5°C° 0 mm 2 mps 718 mmHg 77%
    07:00 +5°C° 0 mm 2 mps 718 mmHg 75%
    08:00 +6°C° 0 mm 2 mps 719 mmHg 69%
    09:00 +8°C° 0 mm 2 mps 719 mmHg 62%
    10:00 +11°C° 0 mm 1 mps 720 mmHg 56%
    11:00 +12°C° 0 mm 1 mps 720 mmHg 53%
    12:00 +13°C° 0 mm 2 mps 720 mmHg 50%
    13:00 +14°C° 0 mm 2 mps 720 mmHg 47%
    14:00 +13°C° 0 mm 1 mps 720 mmHg 50%
    15:00 +13°C° 0 mm 1 mps 720 mmHg 52%
    16:00 +13°C° 0 mm 1 mps 720 mmHg 55%
    17:00 +11°C° 0 mm 1 mps 721 mmHg 60%
    18:00 +10°C° 0 mm 1 mps 721 mmHg 65%
    19:00 +8°C° 0 mm 1 mps 721 mmHg 70%
    20:00 +8°C° 0 mm 1 mps 721 mmHg 72%
    21:00 +7°C° 0 mm 1 mps 722 mmHg 73%
    22:00 +7°C° 0 mm 1 mps 722 mmHg 74%
    23:00 +7°C° 0 mm 1 mps 723 mmHg 75%

    28 January, Sunday

    Time Temperature Precipitation Wind Pressure Humidity
    00:00 +6°C° 0 mm 1 mps 723 mmHg 77%
    01:00 +6°C° 0 mm 1 mps 723 mmHg 78%
    02:00 +6°C° 0 mm 1 mps 723 mmHg 79%
    03:00 +5°C° 0 mm 1 mps 723 mmHg 80%
    04:00 +5°C° 0 mm 1 mps 723 mmHg 82%
    05:00 +5°C° 0 mm 1 mps 724 mmHg 83%
    06:00 +5°C° 0 mm 1 mps 724 mmHg 84%
    07:00 +5°C° 0 mm 1 mps 725 mmHg 85%
    08:00 +6°C° 0 mm 1 mps 726 mmHg 82%
    09:00 +8°C° 0 mm 1 mps 726 mmHg 78%
    10:00 +8°C° 0 mm 2 mps 727 mmHg 75%
    11:00 +9°C° 0 mm 2 mps 727 mmHg 72%
    12:00 +10°C° 0 mm 2 mps 727 mmHg 70%
    13:00 +12°C° 0 mm 2 mps 727 mmHg 67%
    14:00 +12°C° 0 mm 2 mps 727 mmHg 70%
    15:00 +12°C° 0 mm 2 mps 728 mmHg 72%
    16:00 +10°C° 0 mm 2 mps 728 mmHg 75%
    17:00 +9°C° 0 mm 2 mps 728 mmHg 79%
    18:00 +8°C° 0 mm 2 mps 728 mmHg 83%
    19:00 +7°C° 0 mm 2 mps 728 mmHg 88%
    20:00 +7°C° 0 mm 2 mps 728 mmHg 89%
    21:00 +7°C° 0 mm 2 mps 728 mmHg 90%
    22:00 +7°C° 0 mm 2 mps 729 mmHg 91%
    23:00 +7°C° 0 mm 1 mps 729 mmHg 91%

    29 January, Monday

    Time Temperature Precipitation Wind Pressure Humidity
    00:00 +7°C° 0 mm 1 mps 728 mmHg 92%
    01:00 +7°C° 0 mm 1 mps 728 mmHg 92%
    02:00 +7°C° 0 mm 1 mps 728 mmHg 92%
    03:00 +6°C° 0 mm 2 mps 728 mmHg 92%
    04:00 +5°C° 0 mm 2 mps 728 mmHg 92%
    05:00 +6°C° 0 mm 1 mps 728 mmHg 91%
    06:00 +6°C° 0 mm 1 mps 728 mmHg 91%
    07:00 +6°C° 0 mm 1 mps 728 mmHg 90%
    08:00 +7°C° 0 mm 1 mps 728 mmHg 85%
    09:00 +8°C° 0 mm 2 mps 728 mmHg 79%
    10:00 +9°C° 0 mm 2 mps 729 mmHg 74%
    11:00 +10°C° 0 mm 2 mps 729 mmHg 69%
    12:00 +12°C° 0 mm 2 mps 728 mmHg 64%
    13:00 +13°C° 0 mm 2 mps 728 mmHg 59%
    14:00 +12°C° 0 mm 2 mps 728 mmHg 60%
    15:00 +12°C° 0 mm 2 mps 728 mmHg 62%
    16:00 +12°C° 0 mm 2 mps 727 mmHg 64%
    17:00 +10°C° 0 mm 1 mps 727 mmHg 70%
    18:00 +9°C° 0 mm 1 mps 727 mmHg 77%
    19:00 +8°C° 0 mm 1 mps 727 mmHg 83%
    20:00 +7°C° 0 mm 1 mps 727 mmHg 85%
    21:00 +7°C° 0 mm 1 mps 727 mmHg 86%
    22:00 +7°C° 0 mm 1 mps 727 mmHg 87%
    23:00 +6°C° 0 mm 1 mps 727 mmHg 87%
    Show more